Location: Góry Miechowskie
(50.3599°N, 20.1803°E)
Time: 07:11:38
(UTC+00:00)

A-11 Canister half - Pass Details

Date: 18 September 2024
Orbit: 1524 x 1683 km, 47.3° (Epoch: 12 October)

Event Time Altitude Azimuth Distance (km) Brightness Sun altitude
Rises 19:57:12 0° 282° (WNW) 4,861 12.5 -28.5°
Reaches altitude 10° 20:05:03 10° 244° (WSW) 3,910 11.3 -29.3°
Maximum altitude 20:05:52 10° 239° (WSW) 3,903 11.2 -29.4°
Drops below altitude 10° 20:06:41 10° 234° (SW) 3,915 11.2 -29.5°
Enters shadow 20:12:20 - 205° (SSW) 4,490 11.2 -30.1°
